Showing default

SCATSAT 1, 41790

Orbit data source: Space-Track

SCATSAT 1, 41790 is a payload satellite owned by ISRO (IN) in SSO that was launched on Mon, 26 Sep 2016 UTC via a PSLV launch vehicle from the Sirharikota (SRI). Payload-class satellites include a variety of spacecraft equipped with specific instruments for various scientific and technological missions. These include communications satellites like Starlink; space stations such as the ISS; scientific satellites like the Hubble; Earth observation satellites from companies like Planet Labs, Umbra, and HawkEye 360; GPS; miniature CubeSats for education and research; and military/defense satellites.

Loading next visibility...
Identifier
41790, 2016-059H
Orbit
SSO
Country
Flag of ININ / IND
Related business
Manufacturer
ISRO SAC/Banga
Mission
Operational Civil Science
Bus & Motor
SSB-2, Unknown motor
Mass
370 kg wet, ~350 kg dry
Launch date (UTC)
2016-09-26 (9 years ago)
Launch vehicle
PSLV
Launch site
Sirharikota (SRI)
Object type
Payload
Rocket body
Debris
Shape & HBR
Box + 2 Pan, 2.0 m
Radar Cross Section
4.015 m², Large (>1 m²)

Expand to show TLE details & history
Last TLE update: 15 hours ago

TLE from 15 hours ago
0 SCATSAT 1
1 41790U 16059H   25258.14768671  .00001669  00000-0  23015-3 0  9990
2 41790  98.1599 313.6713 0056735  54.6393 306.0101 14.78491530 60935
Epoch: 2025-09-15T03:32Z
TLE epoch observation values (Epoch: 2025-09-15T03:32:40.131Z)
Latitude
-0.00001°
Longitude
-93.85242°
Altitude
613.855 km
Speed
7.565 km/s
True Right ascension
20h 54m 41s
True Declination
0° 00' 00"
Sunlit
Object was in full shadow at epoch
Visualization orbit readout
Latitude
Unknown
Longitude
Unknown
Altitude
Unknown
Speed
Unknown
Apparent Right ascension
Unknown
Apparent Declination
Unknown
Sunlit
N/A
Visualization observer readout
Local Sidereal Time
11:10:53
Azimuth
Unknown
Elevation
Unknown
Doppler factor
Unknown
Orbital elements
Apogee altitude
670.911 km
Perigee altitude
591.377 km
Semi-major axis
7,009.281 km
Eccentricity
0.00567
Inclination
98.1599°
RAAN
313.6713°
Arg. of periapsis
54.6393°
True anomaly
305.482°
Mean anomaly
306.0101°
Eccentric anomaly
305.74627°
Mean motion
3.69856 °/min
Orbital period
97.34 mins
BSTAR
0.00023015
Loading maneuver chart data...
Computing Atmospheric mass density...
Loading historical data...
Loading historical data...
Loading historical data...
Loading historical data...
Loading historical data...
Loading historical data...
Loading historical data...

Documentation

Showing up to 5 results
|